Regional Weather Roundup
Issued by NWS Wakefield, VA

Home | Current Version | Previous Version | Graphics & Text | Print | Product List | Glossary On
Versions: 1 2 3 4 5 6 7 8 9 10 11 12 13 14 15 16 17 18 19 20 21 22 23 24 25 26
000
ASUS41 KAKQ 290615
RWRAKQ

REGIONAL WEATHER ROUNDUP
NATIONAL WEATHER SERVICE WAKEFIELD VA
200 AM EDT THU SEP 29 2016

Note: "fair" indicates few or no clouds below 12,000 feet with no
significant weather and/or obstructions to visibility. * = Denotes
station may not report precipitation (e.g., rain,snow,etc.),
thunder or fog.

VAZ042-051-052>054-056-290700-
NORTHERN VIRGINIA

CITY           SKY/WX    TMP DP  RH WIND       PRES   REMARKS
WASH NATIONAL  LGT RAIN  69  68  96 E10       30.03S
DULLES         HVY RAIN  68  66  93 E14       30.02S FOG
FORT BELVOIR   LGT RAIN  68  66  94 VRB3      30.03R
QUANTICO       RAIN      71  68  90 SE8       30.04R
FREDERICKSBRG* LGT RAIN  68  68 100 E8        30.01R
STAFFORD*      RAIN      68  68 100 SE7       30.06R
WARRENTON      CLOUDY    69  64  84 SE5       30.01R
CULPEPER*      LGT RAIN  68  68  99 CALM      30.02S
MANASSAS*      CLOUDY    70  70 100 SE9       30.02R
LEESBURG*      RAIN      68  68 100 E12G20    30.03F
WINCHESTER     CLOUDY    64  63  94 CALM        N/A
FRONT ROYAL*   CLOUDY    61  61 100 CALM      30.03R
LURAY*         HVY RAIN N/A N/A N/A E5        30.02S
$$

VAZ048-049-060>072-079>083-290700-
CENTRAL AND SOUTH CENTRAL VIRGINIA

CITY           SKY/WX    TMP DP  RH WIND       PRES   REMARKS
RICHMOND       CLOUDY    66  65  96 E12       30.00F
CHESTERFIELD*  CLOUDY    70  55  60 W8        30.01S
PETERSBURG*    CLOUDY   N/A N/A N/A SE5       30.00S THUNDER
HANOVER        NOT AVBL
TAPPAHANNOCK*  TSTM      68  68 100 NE8       30.04S
QUINTON*       CLOUDY    66  65  97 S7G17     30.02R
CHARLOTTSVILLE CLOUDY    68  65  90 N5        30.00F
GORDONSVILLE*  CLOUDY    66  66 100 CALM      30.00F
ORANGE*          N/A     66  66 100 CALM      30.03S
LOUISA*        CLOUDY    70  68  94 E3        29.99F
BUMPASS*       CLOUDY    65  65 100 CALM      30.01R
FARMVILLE*     LGT RAIN  69  68  98 CALM      29.96F
CREWE*         MOCLDY    70  70 100 CALM      29.98S
FORT PICKETT*  MOCLDY   N/A N/A N/A S12       29.98F
CHASE CITY*    CLOUDY    66  65  94 S6        29.99S
CLARKSVILLE*   CLOUDY    64  64 100 S3        29.99S
SOUTH HILL*    CLOUDY    69  69 100 CALM      30.05S
LAWRENCEVILLE* CLOUDY    71  71  97 SE3       29.99S
EMPORIA*         N/A     70  70 100 E3        30.01F
$$

VAZ088>098-290700-
SOUTHEAST VIRGINIA

CITY           SKY/WX    TMP DP  RH WIND       PRES   REMARKS
NORFOLK        PTCLDY    72  70  93 CALM      30.02S
VIRGINIA BEACH MOCLDY    70  68  93 N3        30.02R
NORFOLK NAVAL  CLOUDY    72  69  90 E3        30.03F
WEST POINT*    CLOUDY    65  65  97 CALM      30.04F
SALUDA*        MOCLDY    68  68 100 N3        30.03F
NEWPORT NEWS   PTCLDY    70  68  93 E7        30.03F
LANGLEY AFB    CLOUDY    71  69  93 NE8       30.02F
FORT EUSTIS    MOCLDY    70  67  90 E7        30.00F
WILLIAMSBURG*  PTCLDY    68  66  94 CALM      30.03F
HR EXEC AP*    FAIR      66  64  94 CALM      30.03F
FRANKLIN*      MOCLDY    70  69  96 E6        30.01F
US460-WAKEFLD  CLOUDY    72  69  90 CALM      30.01F
$$

VAZ020-022-025-037-045-290700-
WEST CENTRAL AND SOUTHWEST VIRGINIA

CITY           SKY/WX    TMP DP  RH WIND       PRES   REMARKS
STAUNTON*      RAIN      62  61  97 CALM      30.03F
WAYNESBORO*    CLOUDY    62  61  96 CALM      30.01F
HOT SPRINGS VA CLOUDY    56  56 100 SE7       30.05F
LYNCHBURG      CLOUDY    65  65 100 VRB3      30.01F
DANVILLE       MOCLDY    66  64  93 CALM      29.95F
SOUTH BOSTON*  CLOUDY    67  65  96 S3        29.96F
MARTINSVILLE   CLOUDY    66  64  91 CALM      29.99F
ROANOKE        CLOUDY    64  63  96 NE5       30.00F
BLACKSBURG     CLOUDY    63  62  97 N5        30.03F
DUBLIN*        CLOUDY    63  63 100 CALM      30.02F
MARION*        CLEAR     56  50  81 CALM      30.06S
HILLSVILLE*    CLOUDY    64  64 100 CALM      30.00F FOG
RICHLANDS*     FAIR      54  51  92 E7        30.04F
WISE*          CLOUDY    54  52  94 CALM      30.03F
ABINGDON*      CLEAR     58  52  80 NE6       30.00S
$$

MDZ021>025-VAZ099-100-290700-
SOUTHERN MARYLAND AND THE DELMARVA PENINSULA

CITY           SKY/WX    TMP DP  RH WIND       PRES   REMARKS
PATUXENT RIVER LGT RAIN  69  66  90 E16G28    30.04R FOG
BAY BRIDGE APT LGT RAIN N/A N/A N/A MISG      30.06R
LEONARDTOWN    CLOUDY    68  64  88 E7G21     30.07R
DOVER          TSTM      66  66 100 NE13      30.12R FOG
GEORGETOWN     TSTM      68  67  96 NE18G25   30.08F FOG
EASTON         NOT AVBL
CAMBRIDGE      CLOUDY    66  64  94 NE14G24   30.04F
SALISBURY      HVY RAIN  67  66  97 N6G18     30.05S VSB 1/2
OCEAN CITY     CLOUDY    72  68  87 E23G33    30.04F
WALLOPS ISLAND TSTM      71  70  96 S14G35    30.06R VSB 1/4
ACCOMACK*      CLOUDY    69  66  89 CALM      30.04F
$$

NCZ012>017-030>032-290700-
NORTH CENTRAL AND EASTERN NORTH CAROLINA

CITY           SKY/WX    TMP DP  RH WIND       PRES   REMARKS
ROANOKE RAPIDS CLOUDY    70  70 100 CALM      29.99F
RALEIGH        TSTM      65  64  97 CALM      30.03R
ELIZABETH CITY CLEAR     73  71  93 SE6       30.01S
AHOSKIE*       CLOUDY    70  69  98 CALM      30.01S
EDENTON*       CLEAR     76  76 100 SE6       30.01S
CURRITUCK*     NOT AVBL
KILL DEVIL HLS CLEAR     74  74 100 SE3       30.01S
MANTEO         CLEAR     73  73 100 CALM      30.02R
CAPE HATTERAS  PTCLDY    76  72  87 CALM      30.01R
TARBORO*       FAIR      71  70  98 CALM      30.00F
GOLDSBORO      CLOUDY    73  73 100 NW1       29.97S
WASHINGTON     CLOUDY    71  69  93 SE3       30.00F
GREENVILLE     PTCLDY    72  72 100 CALM      30.00F
NEW BERN       CLEAR     70  68  93 S3        30.00F
WILMINGTON     CLEAR     76  70  82 SE5       29.97F
$$

VAZ048-290700-
ELSEWHERE

CITY           SKY/WX    TMP DP  RH WIND       PRES   REMARKS
HARRISBURG PA  LGT RAIN  60  59  96 E15       30.13R
BALTIMORE      LGT RAIN  67  65  93 E18G26    30.07R
ANNAPOLIS      RAIN      70  67  90 E15G23    30.05R
ANDREWS AFB    LGT RAIN  67  66  94 E14G21    30.03R
PHILADELPHIA   LGT RAIN  61  59  93 NE13      30.20S FOG
HENDERSON NC   RAIN      63  62  96 SW3       30.00F
GREENSBORO     CLOUDY    65  65 100 SE10      29.95F
ROCKY MOUNT    MOCLDY    71  71 100 CALM      29.99S FOG
$$

VAZ100-290700-
MARINE

STATION/POSITION TIME  TEMP    WIND        PRES    WAVE   SWELL
                       AIR SEA DIR/SP/G            HT/PER HT/PER
                 (UTC) (F)     (DEG/KT/KT) (MB)    (FT/S) (FT/S)
BRANDYWINE LGT   0548           80/ 26/ 31   N/A
CAPE MAY NJ      0548      72   60/  9/ 15 1019.4R
LEWES DE         0548      71   80/ 27/ 32 1018.5R
OCEAN-CITY-INLET 0548      73   90/ 15/ 24 1018.1R
WACHAPREAGUE VA  0548      74  290/  2/  5 1017.3R
THOMAS POINT MD  0600   69 73  100/ 26/ 29 1017.9R
GOOSES REEF MD   0600   69 74  120/ 19/ 23 1017.6    3/ 3
COVE POINT MD    0548          110/ 24/ 30 1018.0R
SOLOMONS ISLAND  0548      74   70/ 22/ 27   N/A
BISHOPS HEAD MD  0548      71   40/ 12/ 17 1017.3F
PINEY POINT MD   0548          100/ 17/ 19   N/A
POTOMAC MD       0600   71 74   60/ 16/ 19 1016.9    2/ 3
CAMBRIDGE MD     0548      72   60/ 20/ 24 1016.2F
LEWISETTA VA     0548      72   90/ 19/ 22 1017.0R
RAPPAHANNOCK LGT 0548           40/  9/ 10 1017.6F
STINGRAY PT      0600   73 75   10/ 10/ 12 1017.3    1/ 3
YORK RVR RNG VA  0548           80/ 13/ 15 1016.3S
YORKTOWN VA      0548      76   70/  4/  7 1016.4F
JAMESTOWN VA     0600   69 76   70/  4/  8   N/A     0
DOMINION TERM VA 0548           50/  3/  4 1016.6F
KIPTOPEKE VA     0548      76   50/  6/  7   N/A
CHES BAY BRIDGE  0548      76   CALM  /  1 1016.7R
CAPE HENRY VA    0548          270/  1/  2   N/A
WILLOUBY STN VA  0548           CALM  /  2   N/A
CAPE HENRY BUOY  0542      76                N/A     4/ 8   2/11
1ST LANDING BUOY 0600   75 76   CALM  /  2 1016.7    2/ 6
CAPE CHARLES BUO 0556      76                N/A     4/ 7   2/11
OFFSHORE WE BUOY 0551      76                N/A     5/ 7   2/11
64NM E OF VA BCH 0550   75 74  120/  4/  6 1016.4F   5/ 8   5/ 8
DUCK PIER NC     0548      76  130/  9/ 10 1015.8R
44056 DUCK FRF   0541      77                N/A     4/ 8   2/11
OREGON INLET NC  0548      78   90/  3/  5 1016.3R
HATTERAS NC      0548      79  140/  3/  4 1016.0R
DIAMOND SHLS NC  0550   81 83  150/ 12/ 14 1015.8F   4/ 8   3/ 8
CAPE LOOKOUT NC  0600   80     150/  6/  6 1015.4S
$$




USA.gov is the U.S. government's official web portal to all federal, state and local government web resources and services.